• In Hungary
  • List of Countries
  • For 7 days
  • Water Temperature
  • Satellite Maps
  • Weather Map
  • News
  • Weather Widgets
  • user-avatar
    Login

    Hourly Weather Middelburg

    Today, 25 September, Tuesday

    Time Temperature Precipitation Wind Pressure Humidity
    00:00 +9°C° 0 mm 3 mps 778 mmHg 73%
    01:00 +9°C° 0 mm 2 mps 778 mmHg 74%
    02:00 +8°C° 0 mm 2 mps 778 mmHg 75%
    03:00 +8°C° 0 mm 2 mps 778 mmHg 76%
    04:00 +8°C° 0 mm 2 mps 778 mmHg 77%
    05:00 +9°C° 0 mm 1 mps 778 mmHg 78%
    06:00 +9°C° 0 mm 1 mps 778 mmHg 79%
    07:00 +11°C° 0 mm 1 mps 778 mmHg 73%
    08:00 +12°C° 0 mm 1 mps 778 mmHg 68%
    09:00 +14°C° 0 mm 1 mps 779 mmHg 62%
    10:00 +15°C° 0 mm 1 mps 779 mmHg 58%
    11:00 +15°C° 0 mm 1 mps 778 mmHg 55%
    12:00 +16°C° 0 mm 1 mps 778 mmHg 51%
    13:00 +16°C° 0 mm 1 mps 778 mmHg 50%
    14:00 +18°C° 0 mm 1 mps 778 mmHg 49%
    15:00 +18°C° 0 mm 1 mps 777 mmHg 48%
    16:00 +15°C° 0 mm 1 mps 777 mmHg 52%
    17:00 +14°C° 0 mm 1 mps 777 mmHg 56%
    18:00 +13°C° 0 mm 1 mps 777 mmHg 60%
    19:00 +12°C° 0 mm 2 mps 777 mmHg 62%
    20:00 +12°C° 0 mm 2 mps 777 mmHg 64%
    21:00 +10°C° 0 mm 3 mps 777 mmHg 66%
    22:00 +10°C° 0 mm 3 mps 777 mmHg 67%
    23:00 +9°C° 0 mm 3 mps 776 mmHg 69%

    Tomorrow, 26 September, Wednesday

    Time Temperature Precipitation Wind Pressure Humidity
    00:00 +9°C° 0 mm 3 mps 776 mmHg 70%
    01:00 +8°C° 0 mm 4 mps 776 mmHg 71%
    02:00 +8°C° 0 mm 4 mps 776 mmHg 72%
    03:00 +7°C° 0 mm 4 mps 776 mmHg 73%
    04:00 +7°C° 0 mm 4 mps 775 mmHg 72%
    05:00 +7°C° 0 mm 4 mps 775 mmHg 72%
    06:00 +7°C° 0 mm 4 mps 775 mmHg 71%
    07:00 +10°C° 0 mm 4 mps 775 mmHg 65%
    08:00 +12°C° 0 mm 4 mps 775 mmHg 59%
    09:00 +13°C° 0 mm 4 mps 775 mmHg 53%
    10:00 +15°C° 0 mm 4 mps 775 mmHg 49%
    11:00 +17°C° 0 mm 4 mps 775 mmHg 45%
    12:00 +19°C° 0 mm 4 mps 774 mmHg 41%
    13:00 +19°C° 0 mm 4 mps 774 mmHg 41%
    14:00 +19°C° 0 mm 4 mps 774 mmHg 41%
    15:00 +20°C° 0 mm 4 mps 774 mmHg 40%
    16:00 +18°C° 0 mm 3 mps 774 mmHg 44%
    17:00 +16°C° 0 mm 3 mps 774 mmHg 48%
    18:00 +14°C° 0 mm 3 mps 773 mmHg 52%
    19:00 +13°C° 0 mm 3 mps 774 mmHg 53%
    20:00 +13°C° 0 mm 3 mps 774 mmHg 54%
    21:00 +13°C° 0 mm 3 mps 774 mmHg 55%
    22:00 +12°C° 0 mm 3 mps 774 mmHg 55%
    23:00 +12°C° 0 mm 3 mps 774 mmHg 56%

    Day after tomorrow, 27 September, Thursday

    Time Temperature Precipitation Wind Pressure Humidity
    00:00 +12°C° 0 mm 3 mps 773 mmHg 56%
    01:00 +11°C° 0 mm 3 mps 773 mmHg 57%
    02:00 +11°C° 0 mm 3 mps 773 mmHg 58%
    03:00 +11°C° 0 mm 3 mps 773 mmHg 59%
    04:00 +11°C° 0 mm 3 mps 773 mmHg 60%
    05:00 +10°C° 0 mm 3 mps 773 mmHg 62%
    06:00 +10°C° 0 mm 3 mps 772 mmHg 63%
    07:00 +12°C° 0 mm 3 mps 772 mmHg 59%
    08:00 +14°C° 0 mm 3 mps 772 mmHg 56%
    09:00 +16°C° 0 mm 3 mps 772 mmHg 52%
    10:00 +18°C° 0 mm 4 mps 771 mmHg 49%
    11:00 +19°C° 0 mm 4 mps 771 mmHg 45%
    12:00 +21°C° 0 mm 4 mps 770 mmHg 41%
    13:00 +21°C° 0 mm 4 mps 770 mmHg 42%
    14:00 +21°C° 0 mm 4 mps 769 mmHg 43%
    15:00 +21°C° 0 mm 4 mps 769 mmHg 44%
    16:00 +20°C° 0 mm 3 mps 768 mmHg 49%
    17:00 +18°C° 0 mm 3 mps 768 mmHg 54%
    18:00 +16°C° 0 mm 3 mps 768 mmHg 59%
    19:00 +16°C° 0 mm 3 mps 768 mmHg 61%
    20:00 +14°C° 0 mm 3 mps 768 mmHg 64%
    21:00 +14°C° 0 mm 3 mps 768 mmHg 66%
    22:00 +14°C° 0 mm 3 mps 767 mmHg 70%
    23:00 +13°C° 0 mm 3 mps 767 mmHg 74%

    28 September, Friday

    Time Temperature Precipitation Wind Pressure Humidity
    00:00 +13°C° 0 mm 3 mps 767 mmHg 77%
    01:00 +13°C° 0 mm 3 mps 767 mmHg 80%
    02:00 +13°C° 0 mm 3 mps 767 mmHg 82%
    03:00 +13°C° 0 mm 4 mps 767 mmHg 85%
    04:00 +13°C° 0 mm 4 mps 767 mmHg 85%
    05:00 +13°C° 0 mm 4 mps 767 mmHg 86%
    06:00 +12°C° 0 mm 5 mps 767 mmHg 86%
    07:00 +14°C° 0 mm 5 mps 768 mmHg 82%
    08:00 +15°C° 0 mm 6 mps 768 mmHg 77%
    09:00 +16°C° 0 mm 7 mps 769 mmHg 73%
    10:00 +17°C° 0 mm 7 mps 769 mmHg 70%
    11:00 +17°C° 0 mm 7 mps 769 mmHg 68%
    12:00 +17°C° 0 mm 7 mps 769 mmHg 65%
    13:00 +17°C° 0 mm 7 mps 769 mmHg 64%
    14:00 +16°C° 0 mm 7 mps 769 mmHg 64%
    15:00 +16°C° 0 mm 7 mps 769 mmHg 63%
    16:00 +15°C° 0 mm 7 mps 770 mmHg 63%
    17:00 +14°C° 0 mm 7 mps 770 mmHg 64%
    18:00 +12°C° 0 mm 7 mps 771 mmHg 64%
    19:00 +11°C° 0 mm 7 mps 771 mmHg 65%
    20:00 +10°C° 0 mm 7 mps 771 mmHg 66%
    21:00 +10°C° 0 mm 7 mps 772 mmHg 66%
    22:00 +9°C° 0 mm 6 mps 772 mmHg 68%
    23:00 +9°C° 0 mm 6 mps 772 mmHg 70%

    29 September, Saturday

    Time Temperature Precipitation Wind Pressure Humidity
    00:00 +8°C° 0 mm 5 mps 772 mmHg 73%
    01:00 +8°C° 0 mm 5 mps 772 mmHg 74%
    02:00 +7°C° 0 mm 5 mps 772 mmHg 75%
    03:00 +7°C° 0 mm 5 mps 772 mmHg 76%
    04:00 +7°C° 0 mm 5 mps 772 mmHg 78%
    05:00 +6°C° 0 mm 4 mps 772 mmHg 79%
    06:00 +6°C° 0 mm 4 mps 772 mmHg 80%
    07:00 +8°C° 0 mm 4 mps 772 mmHg 74%
    08:00 +10°C° 0 mm 4 mps 772 mmHg 68%
    09:00 +12°C° 0 mm 4 mps 772 mmHg 63%
    10:00 +13°C° 0 mm 4 mps 772 mmHg 59%
    11:00 +14°C° 0 mm 4 mps 772 mmHg 55%
    12:00 +15°C° 0 mm 4 mps 772 mmHg 51%
    13:00 +15°C° 0 mm 4 mps 771 mmHg 50%
    14:00 +15°C° 0 mm 4 mps 771 mmHg 50%
    15:00 +17°C° 0 mm 4 mps 770 mmHg 49%
    16:00 +14°C° 0 mm 4 mps 770 mmHg 54%
    17:00 +13°C° 0 mm 4 mps 770 mmHg 58%
    18:00 +12°C° 0 mm 4 mps 770 mmHg 62%
    19:00 +11°C° 0 mm 4 mps 770 mmHg 64%
    20:00 +10°C° 0 mm 3 mps 770 mmHg 67%
    21:00 +10°C° 0 mm 3 mps 770 mmHg 69%
    22:00 +9°C° 0 mm 3 mps 770 mmHg 71%
    23:00 +9°C° 0 mm 3 mps 770 mmHg 72%

    30 September, Sunday

    Time Temperature Precipitation Wind Pressure Humidity
    00:00 +8°C° 0 mm 3 mps 770 mmHg 73%
    01:00 +8°C° 0 mm 2 mps 769 mmHg 74%
    02:00 +8°C° 0 mm 2 mps 769 mmHg 75%
    03:00 +7°C° 0 mm 2 mps 769 mmHg 76%
    04:00 +7°C° 0 mm 2 mps 769 mmHg 76%
    05:00 +7°C° 0 mm 2 mps 769 mmHg 77%
    06:00 +7°C° 0 mm 2 mps 769 mmHg 77%
    07:00 +9°C° 0 mm 2 mps 769 mmHg 71%
    08:00 +12°C° 0 mm 2 mps 769 mmHg 65%
    09:00 +13°C° 0 mm 2 mps 770 mmHg 59%
    10:00 +14°C° 0 mm 3 mps 769 mmHg 57%
    11:00 +16°C° 0 mm 3 mps 769 mmHg 54%
    12:00 +17°C° 0 mm 3 mps 769 mmHg 51%
    13:00 +17°C° 0 mm 4 mps 769 mmHg 52%
    14:00 +17°C° 0 mm 4 mps 769 mmHg 54%
    15:00 +16°C° 0 mm 5 mps 769 mmHg 56%
    16:00 +14°C° 0 mm 5 mps 769 mmHg 61%
    17:00 +13°C° 0 mm 5 mps 770 mmHg 67%
    18:00 +10°C° 0 mm 5 mps 770 mmHg 72%
    19:00 +10°C° 0 mm 5 mps 770 mmHg 73%
    20:00 +10°C° 0 mm 5 mps 771 mmHg 74%
    21:00 +10°C° 0 mm 5 mps 771 mmHg 76%
    22:00 +11°C° 0 mm 4 mps 771 mmHg 75%
    23:00 +11°C° 0 mm 4 mps 771 mmHg 74%
    Show more